sat.trackr.live / text

‹ back to catalog

GLOBAL-13

NORAD 49773 · 2021-115BB

PAYLOAD ACTIVE UNKNOWN

§ Identity

Operator
Country
US
Launch date
2021-12-02
Launch site
AFETR
Launch vehicle
Mass (kg)
RCS (m²)

External: N2YO · Heavens-Above · Gunter

§ Orbital elements

Epoch: 2026-05-24T18:37:09.578784Z

Period
93.20 min
Inclination
53.1962°
Eccentricity
0.0004177
Mean motion
15.45084823 rev/d
Perigee alt
428.3 km
Apogee alt
434.0 km
Semi-major
6,809.3 km
B*
2.7306e-4
RAAN
165.7985°
Arg perigee
52.2994°
Mean anomaly
307.8392°
Rev number
25,214

§ Raw data

GLOBAL-131 49773U 21115BB  26144.77580531  .00012714  00000+0  27306-3 0  99982 49773  53.1962 165.7985 0004177  52.2994 307.8392 15.45084823252145

JSON: /api/v1/satellites/49773 · /tle

For live sub-satellite position, see the globe view (requires WebGL).

§ Visibility from observer

Set your observer location to see the next 7 days of passes ≥ 10°. The values pass through the URL so the page stays shareable.

No JS? Fill the form by hand. The geolocation button needs JavaScript.

§ Radio — SatNOGS DB

ModeDescriptionDownlinkUplink
FM Telemetry 401.375 MHz
FM Telemetry (inactive) 400.876 MHz
BPSK UHF Unknown (inactive) 401.223 MHz

3 transmitters · refreshed weekly from db.satnogs.org